Location: Oberwangen
(47.4286°N, 8.9679°E)
Time: 15:33:38
(UTC+00:00)

Okean 1-7 Rocket - Pass Details

Date: 20 June 2021
Orbit: 616 x 649 km, 82.5° (Epoch: 03 August)

Event Time Altitude Azimuth Distance (km) Brightness Sun altitude
Exits shadow 22:54:15 33° 213° (SSW) 1,066 4.3 -18.8°
Maximum altitude 22:56:06 62° 281° (WNW) 712 3.9 -18.8°
Drops below altitude 10° 23:00:31 10° 3° (N) 2,010 7.4 -18.9°
Sets 23:02:47 0° 7° (N) 2,917 8.5 -18.9°
